Location: Newark
(32.8494°S, 27.4381°E)
Time: 08:10:27
(UTC+00:00)

Envisat - Visible Passes

Search period start: 20 July 2019 00:00
Search period end: 30 July 2019 00:00
Orbit: 764 x 766 km, 98.1° (Epoch: 20 July)

Date Brightness Start Highest point End Pass type
(mag) Time Alt. Az. Time Alt. Az. Time Alt. Az.
20 Jul 5.5 03:33:26 10° ENE 03:37:06 20° ESE 03:40:48 10° SSE visible
20 Jul 3.0 17:27:09 37° S 17:29:15 78° WSW 17:34:20 10° NNW visible
21 Jul 3.1 04:33:54 10° NNE 04:39:00 87° ESE 04:44:10 10° SSW visible
21 Jul 3.3 16:49:48 24° SE 16:52:29 43° E 16:57:18 10° N visible
21 Jul 5.4 18:30:00 17° SW 18:31:06 18° WSW 18:34:31 10° WNW visible
22 Jul 4.6 03:57:46 10° NE 04:02:24 36° ESE 04:07:04 10° S visible
22 Jul 4.4 16:12:27 11° SE 16:15:31 18° E 16:18:56 10° NE visible
22 Jul 4.1 17:52:39 29° SSW 17:54:39 42° WSW 17:59:26 10° NW visible
23 Jul 5.7 03:22:58 10° ENE 03:25:59 16° ESE 03:29:00 10° SSE visible
23 Jul 2.9 17:15:17 29° SSE 17:18:01 81° ENE 17:23:07 10° N visible
24 Jul 3.4 04:22:44 10° NNE 04:27:47 67° ESE 04:32:54 10° S visible
24 Jul 3.6 16:37:55 17° SE 16:41:12 33° E 16:45:46 10° NNE visible
24 Jul 5.1 18:18:06 19° SW 18:19:58 23° WSW 18:23:56 10° WNW visible
25 Jul 5.0 03:46:55 10° NE 03:51:14 28° ESE 03:55:35 10° SSE visible
25 Jul 4.7 16:01:40 10° ESE 16:04:11 14° E 16:06:41 10° ENE visible
25 Jul 3.6 17:40:43 26° S 17:43:28 54° WSW 17:48:25 10° NNW visible
26 Jul 5.9 03:12:54 10° E 03:14:54 12° ESE 03:16:53 10° SE visible
26 Jul 2.9 17:03:20 21° SSE 17:06:47 63° E 17:11:48 10° N visible
26 Jul 5.8 18:43:31 11° SW 18:45:11 13° WSW 18:47:25 10° W visible
27 Jul 3.9 04:11:39 10° NNE 04:16:35 52° ESE 04:21:34 10° S visible
27 Jul 4.0 16:25:56 11° SE 16:29:54 26° E 16:34:06 10° NNE visible
27 Jul 4.7 18:06:07 19° SSW 18:08:49 30° WSW 18:13:11 10° NW visible
28 Jul 5.4 03:36:13 10° ENE 03:40:06 22° ESE 03:44:00 10° SSE visible
28 Jul 3.2 17:28:42 20° S 17:32:16 71° WSW 17:37:19 10° NNW visible
29 Jul 3.1 04:36:55 10° NNE 04:42:01 85° WNW 04:47:12 10° SSW visible
29 Jul 3.2 16:51:15 14° SSE 16:55:31 48° E 17:00:25 10° N visible
29 Jul 5.6 18:31:26 12° SSW 18:34:04 17° WSW 18:37:14 10° WNW visible
